Theta_e
310 310 311 311 311 311 311 310 310 310 310 311 312 312 313 314 316 316 315 316 317 316 316 316 317 317 318 319 320 319 314 315 318 320 319 317 316 318 318 317 317 317 317 317 318
311 312 312 312 313 313 313 312 312 312 311 310 310 310 311 312 313 314 315 316 315 316 316 315 318 318 318 320 320 319 315 317 318 317 318 317 316 317 316 315 316 317 317 317 316
312 312 313 313 313 313 313 313 313 313 312 312 311 310 310 311 312 314 317 316 316 315 316 315 318 317 318 319 320 318 316 317 319 319 317 317 316 317 316 313 316 317 317 316 316
313 313 313 313 313 314 314 314 314 314 314 313 312 311 310 310 310 318 316 315 317 316 315 314 316 318 318 318 321 318 318 319 319 319 318 316 316 316 316 317 318 318 317 317 316
314 314 314 314 314 314 314 314 315 315 315 314 313 312 310 311 312 313 313 315 315 316 314 314 317 318 317 318 318 317 317 319 319 318 317 317 315 314 316 317 317 317 317 317 317
311 311 312 313 313 314 314 314 315 315 315 315 314 312 310 313 313 314 315 314 314 314 314 314 315 317 318 317 316 317 317 317 317 317 316 315 314 315 316 317 317 317 317 317 316
309 309 308 308 308 308 309 310 312 313 314 314 314 312 310 314 314 314 314 313 313 313 313 313 314 316 316 317 317 317 315 312 314 316 314 315 313 312 317 316 317 317 317 317 317
312 312 312 312 312 311 310 308 307 308 309 312 313 311 312 314 314 314 314 314 313 313 312 312 314 314 315 316 316 314 313 314 314 313 315 315 314 313 317 316 315 316 316 317 317
311 311 310 310 310 312 314 313 312 310 308 308 310 311 312 314 314 315 315 314 313 313 312 311 313 313 315 312 311 311 311 312 314 314 312 312 313 312 317 316 316 316 317 317 316
320 320 319 318 313 309 310 312 314 313 310 310 312 315 314 315 314 314 314 313 313 312 311 311 312 311 311 310 312 311 312 312 313 314 312 311 312 313 315 314 315 316 316 316 316
322 322 322 322 321 319 311 309 311 312 312 313 314 313 314 315 315 314 314 312 312 312 311 312 310 312 311 312 312 312 312 312 312 313 313 313 313 313 314 312 313 315 316 316 317
322 322 322 322 322 312 310 308 310 309 308 309 310 309 310 313 315 314 313 312 312 311 311 312 312 311 311 311 312 312 313 314 313 313 311 312 312 312 312 313 313 314 315 316 317
323 322 322 321 320 321 316 309 308 308 311 309 309 309 309 310 314 314 313 312 310 310 311 312 312 313 313 313 314 313 313 313 312 312 310 310 311 311 311 313 314 314 316 316 316
323 323 322 323 320 321 316 310 308 309 304 308 311 312 311 312 311 312 313 313 310 311 310 311 312 312 312 313 313 314 311 312 312 313 314 310 314 311 311 311 311 313 314 316 317
323 323 322 321 321 321 317 307 309 308 309 310 309 311 312 310 309 311 311 311 310 312 311 312 312 311 312 313 310 313 311 311 312 311 312 313 312 313 310 310 310 311 315 317 316
324 323 323 322 322 320 321 309 309 305 307 309 309 311 311 311 310 309 310 310 310 310 309 310 311 312 311 310 311 310 312 311 310 308 312 311 313 314 309 312 310 311 313 316 316
323 321 322 322 322 321 321 310 310 306 308 311 311 311 311 311 310 307 308 308 308 310 308 309 309 309 310 311 309 311 312 312 312 310 314 310 311 314 311 309 310 311 313 316 315
321 322 322 322 321 321 320 310 316 314 311 313 311 310 312 311 312 308 309 308 306 308 309 311 311 309 308 311 311 309 312 314 313 312 313 308 310 312 311 312 313 314 316 315 312
317 318 319 320 321 320 315 313 320 313 314 314 313 315 311 310 311 309 307 308 308 307 311 310 311 309 307 309 311 310 311 311 313 305 308 313 310 309 310 308 308 309 311 310 312
312 312 314 315 317 315 310 320 315 314 314 312 317 315 316 313 310 312 310 310 310 308 310 310 312 308 306 307 307 308 307 312 312 314 312 312 310 312 312 311 310 307 306 310 311
308 310 313 315 317 311 312 313 315 314 314 313 315 314 312 311 309 310 310 309 308 310 308 308 311 310 305 306 308 305 308 308 309 312 314 314 313 308 309 310 310 308 309 309 310
306 310 313 315 313 312 315 313 314 314 313 312 312 312 314 316 316 315 314 311 310 310 310 309 311 313 311 306 306 307 310 311 312 313 308 311 313 310 310 309 310 310 312 312 312
308 310 312 313 315 315 311 312 313 314 314 313 314 313 313 314 315 312 313 312 312 310 311 311 311 314 312 309 304 306 306 309 309 309 312 313 313 311 311 308 308 307 310 312 311
305 308 310 312 312 312 313 313 313 312 312 313 313 313 313 313 313 314 311 311 311 311 312 312 311 314 317 314 310 310 309 308 308 310 311 312 312 312 312 312 312 312 311 311 311
302 304 306 305 310 310 311 311 312 311 311 312 313 313 314 315 314 314 313 312 311 311 310 312 312 311 312 313 313 313 312 311 311 311 312 311 309 310 310 310 310 310 310 310 310
299 301 301 302 303 306 307 308 309 309 309 310 310 311 310 310 312 313 313 312 312 309 310 309 312 312 313 311 311 313 312 312 311 311 311 311 312 311 310 310 310 310 310 309 309
296 297 297 299 299 301 301 304 305 303 303 306 302 303 304 305 306 304 303 302 305 311 311 311 310 312 314 311 312 313 312 312 312 311 311 311 310 310 310 310 310 311 310 310 310
Wind_Speed
7 8 9 9 9 10 10 10 10 10 10 11 10 10 9 10 11 14 15 9 5 5 5 2 1 2 3 3 6 2 2 4 5 3 3 8 4 5 5 5 10 14 10 9 9
8 8 8 9 9 10 10 10 11 12 12 12 11 11 11 12 15 18 14 14 10 8 8 5 1 2 2 3 4 4 3 6 4 4 2 4 6 8 5 7 10 14 19 20 16
11 12 11 11 11 11 11 11 11 11 12 12 13 13 12 12 16 8 3 11 15 11 11 8 7 7 5 6 8 6 6 4 5 5 5 3 4 7 8 7 16 24 30 25 24
13 13 13 14 14 14 13 13 13 13 13 13 14 14 12 11 5 2 6 6 10 17 15 11 8 6 4 5 13 5 13 19 10 8 5 3 7 6 20 25 7 11 22 28 30
16 16 16 16 17 17 17 17 16 15 14 14 14 14 14 9 19 21 20 15 11 17 17 15 13 8 5 6 6 8 7 17 15 14 14 12 18 11 26 26 27 30 27 23 32
18 19 20 20 20 21 20 20 20 19 18 17 16 14 13 10 16 14 14 14 13 16 18 18 9 10 9 9 5 4 6 13 13 14 15 8 8 7 26 24 28 33 31 32 34
17 18 18 19 20 21 22 22 22 21 21 19 17 15 17 27 23 21 17 16 15 16 19 19 19 13 2 5 10 6 8 9 15 19 8 11 10 14 44 30 21 22 27 36 37
16 18 19 20 21 21 21 20 21 22 22 21 18 13 13 19 21 22 22 22 18 18 19 18 18 17 12 7 4 3 2 4 3 8 8 13 16 10 21 24 32 35 29 28 34
12 14 15 17 19 21 22 22 22 22 21 20 14 9 11 15 18 20 20 19 15 17 18 18 14 9 5 4 4 4 6 8 10 15 7 7 11 8 13 23 30 30 32 32 32
12 13 14 16 17 19 19 20 21 20 17 12 10 4 15 11 10 11 13 15 11 11 8 8 9 3 1 4 9 8 6 7 9 3 4 7 15 18 21 10 19 22 26 32 36
15 16 16 18 17 18 19 17 6 3 4 8 4 11 8 10 14 12 12 15 7 8 7 10 5 10 23 15 12 5 6 7 9 8 7 13 17 21 26 19 28 36 40 43 45
15 17 18 18 19 16 17 9 7 9 12 18 27 33 33 30 13 18 16 16 11 7 4 3 12 18 7 8 12 12 18 19 13 15 10 10 18 13 13 21 25 33 39 45 50
16 18 20 18 15 17 16 12 13 11 6 10 25 20 31 26 17 22 21 13 7 6 10 19 8 18 14 9 8 17 13 18 15 7 6 8 11 9 12 25 28 33 42 48 49
18 18 20 20 8 16 10 14 11 11 3 6 4 4 7 9 5 14 22 18 6 13 8 11 18 14 7 8 14 23 9 12 9 3 14 6 19 7 8 16 14 29 35 42 46
20 19 18 20 17 14 12 10 8 6 7 4 3 3 7 6 1 1 16 7 4 2 5 10 3 6 13 23 9 19 4 9 3 5 5 6 7 4 8 10 12 15 34 43 43
19 18 19 18 19 14 9 9 5 4 9 4 3 2 3 1 0 1 2 4 3 3 6 12 2 4 7 1 5 3 2 2 2 2 11 9 11 13 7 13 7 17 33 42 41
20 20 15 19 19 13 8 5 2 5 5 3 3 3 2 5 4 5 4 4 5 1 5 4 13 10 6 3 1 3 5 3 3 1 11 12 11 25 8 8 14 17 32 35 36
18 20 18 16 20 17 10 4 6 2 7 4 4 5 7 8 6 7 5 4 7 1 3 3 13 10 7 19 9 9 14 7 8 6 13 4 8 7 14 18 25 33 35 34 20
18 18 20 15 17 19 10 4 8 6 6 4 9 5 4 5 6 5 7 6 8 18 10 4 8 2 1 0 10 5 7 12 3 2 2 12 14 9 6 9 10 22 29 20 25
21 22 26 20 15 20 3 18 10 9 1 3 13 8 14 7 1 5 8 4 6 14 22 8 10 3 1 2 3 3 0 2 3 4 7 15 8 15 6 17 17 10 13 26 22
17 9 14 11 18 13 5 8 8 14 10 8 12 12 11 6 9 8 6 9 5 4 9 3 6 7 3 8 8 1 4 5 3 4 13 17 15 7 8 7 10 11 20 19 19
11 4 11 18 9 6 12 7 9 16 15 14 9 16 18 14 15 15 20 16 14 7 5 3 1 3 11 7 4 5 12 17 13 19 3 5 15 4 12 9 5 3 6 9 12
7 14 16 20 9 10 4 11 21 20 18 7 10 12 18 22 20 19 21 28 33 9 7 5 3 7 7 10 2 7 6 10 7 3 17 14 20 3 13 11 13 11 17 21 15
5 3 12 24 27 18 18 21 21 27 23 34 24 22 18 20 20 14 17 10 16 17 19 13 10 13 19 19 3 4 11 12 10 10 18 21 30 34 32 30 26 31 31 28 35
8 5 6 3 10 16 14 5 15 8 11 18 8 23 27 26 25 27 27 25 19 16 8 11 11 18 27 30 27 31 32 31 25 21 13 28 20 29 37 24 24 32 31 25 30
4 3 4 8 12 7 4 12 15 17 12 13 20 16 11 16 26 28 25 22 23 5 23 10 16 15 20 26 30 33 33 33 32 36 28 34 34 34 39 50 37 46 40 28 34
8 7 3 8 2 4 7 6 7 16 11 4 17 16 16 19 15 25 30 26 19 15 18 16 10 12 25 22 25 20 32 37 36 29 22 24 33 37 35 31 35 44 30 30 37
Wind_Direction
344 349 352 353 355 357 358 357 355 351 347 344 341 335 324 310 291 279 275 267 260 255 266 268 337 125 179 233 227 247 44 254 256 243 213 169 165 197 227 216 199 203 234 235 228
329 332 335 336 339 341 344 345 345 345 343 339 333 327 321 312 301 283 272 263 257 254 248 242 147 155 224 232 205 169 160 235 223 313 322 215 197 194 214 226 228 225 234 242 235
320 323 324 325 325 326 328 330 330 331 330 329 328 327 321 313 305 289 335 247 241 244 239 238 204 204 230 224 204 199 215 219 299 331 332 298 261 229 201 246 229 229 234 237 237
311 312 315 317 317 318 318 319 319 321 321 321 319 317 313 303 282 268 307 316 253 235 232 228 206 185 217 216 211 225 241 253 276 275 269 260 277 250 230 241 267 250 251 246 237
302 304 305 306 308 310 312 313 312 311 310 311 312 311 301 270 264 283 283 284 267 231 230 226 204 207 214 229 279 217 241 256 274 261 258 255 258 254 264 255 253 252 259 247 243
301 301 303 302 301 300 301 304 306 307 307 307 306 304 284 247 282 279 271 268 256 235 229 218 221 235 270 255 225 270 268 271 272 266 250 208 262 238 266 273 259 246 246 251 251
310 310 309 307 304 300 297 297 297 297 299 301 300 295 270 269 276 273 267 265 252 241 232 227 226 236 238 278 268 287 307 310 259 249 223 204 281 225 263 254 255 248 246 246 248
317 318 319 320 313 309 306 304 299 296 294 295 294 283 259 276 269 257 258 261 250 239 235 228 229 240 243 260 300 256 209 279 252 179 196 155 263 234 259 249 245 247 245 244 248
327 329 331 331 323 316 310 305 304 302 297 288 283 240 263 260 252 257 251 247 244 233 230 233 225 221 223 130 338 241 238 218 294 188 153 180 251 261 265 240 246 246 243 242 249
337 338 344 347 338 325 317 312 303 297 282 278 231 234 245 249 256 260 245 228 219 208 219 203 195 185 234 132 225 214 224 246 230 212 160 198 247 267 254 257 246 243 243 242 249
332 336 339 352 347 342 334 339 316 310 281 240 210 224 274 266 262 256 238 209 200 188 189 197 151 209 224 209 232 232 261 239 265 252 179 228 235 246 261 240 247 255 261 264 266
323 329 331 350 351 0 357 7 331 298 299 262 265 259 259 259 245 236 220 187 185 211 190 249 221 227 239 205 230 244 259 268 278 264 202 246 245 243 255 254 237 243 250 256 264
313 322 325 343 348 357 357 357 329 306 260 272 263 253 248 244 239 246 213 204 192 202 214 226 228 221 225 232 262 244 244 260 265 301 250 296 267 232 248 247 252 249 255 263 264
301 307 314 327 333 346 355 340 335 328 293 265 220 231 208 168 266 235 230 223 217 223 204 249 242 238 203 223 210 263 225 244 244 236 270 151 291 231 242 248 247 252 252 255 255
285 294 301 310 319 336 341 338 331 348 300 248 208 210 166 176 59 264 201 218 245 230 139 231 235 220 234 235 190 257 223 239 240 240 313 176 285 231 187 241 251 249 248 255 262
276 281 281 284 297 312 338 332 325 50 254 280 131 133 94 307 34 28 154 217 350 292 254 249 175 233 214 125 189 123 74 355 30 80 265 174 202 261 192 219 244 246 250 258 263
274 273 264 264 265 268 303 342 325 200 304 226 229 158 187 203 213 175 157 178 200 252 240 301 235 213 163 182 222 155 100 295 313 346 251 186 210 253 290 249 220 232 239 239 246
276 268 256 255 251 246 247 76 231 192 244 333 38 182 195 173 231 187 163 251 237 200 322 244 290 160 186 208 193 195 202 184 206 233 277 136 245 256 214 230 238 242 240 234 218
279 280 272 265 249 235 174 183 233 171 219 293 333 287 255 246 219 144 203 222 214 184 201 231 257 300 92 272 168 187 182 228 299 126 26 265 270 290 241 247 248 238 236 224 223
282 284 272 274 250 206 191 235 222 198 63 67 262 206 264 252 307 211 175 215 236 187 209 229 257 198 171 236 266 159 79 109 236 209 246 261 262 265 273 270 259 265 216 236 220
286 279 271 221 204 179 215 227 262 243 222 191 238 249 246 263 208 253 220 294 258 269 215 323 266 257 157 204 183 86 247 234 293 193 250 263 271 217 242 248 258 246 234 223 220
253 237 213 207 193 194 230 231 240 250 233 235 247 253 253 253 253 251 248 234 222 172 187 155 262 296 250 297 272 254 229 228 241 251 240 270 262 185 252 233 186 313 321 263 243
228 231 231 214 229 231 233 252 244 251 247 209 228 224 239 246 262 243 255 252 254 230 194 165 160 243 287 289 231 217 222 230 253 281 249 252 260 165 255 272 307 290 281 269 235
250 265 206 213 237 249 248 251 246 240 249 257 256 253 254 250 248 254 256 266 248 251 255 195 198 232 246 236 197 237 259 242 233 253 258 250 263 277 265 263 272 273 264 253 274
227 245 260 242 237 242 247 264 258 279 280 288 263 242 247 254 248 254 251 260 251 256 194 184 232 221 235 241 244 251 255 255 250 240 238 260 252 263 270 270 273 276 264 262 266
274 291 322 292 308 295 261 258 274 283 265 273 271 284 285 284 267 260 258 246 239 226 222 193 243 233 231 227 233 244 245 251 254 255 248 246 257 254 268 274 273 265 263 264 262
231 257 320 264 309 256 258 285 285 314 287 308 339 326 310 300 302 299 294 289 293 295 253 218 210 222 249 233 242 246 239 240 245 247 245 244 244 256 265 261 261 271 281 269 263